When you browse on this site, cookies collect data to enhance your experience and personalize the content and advertising you see.
Visit our Privacy Policy to learn more. By continuing to use the site, you agree to this use of cookies and data.
  • In United Kingdom
  • List of Countries
  • For 7 days
  • Water Temperature
  • Satellite Maps
  • Weather Map
  • Weather Widgets
  • user-avatar
    Login

    Hourly Weather Budapest

    Today, 27 June, Thursday

    Time Temperature Precipitation Wind Pressure Humidity
    00:00 +26°C° 0 mm 2 mps 757 mmHg 76%
    01:00 +25°C° 0 mm 2 mps 756 mmHg 78%
    02:00 +25°C° 0 mm 2 mps 756 mmHg 80%
    03:00 +24°C° 0 mm 2 mps 756 mmHg 81%
    04:00 +24°C° 0 mm 2 mps 755 mmHg 83%
    05:00 +25°C° 0 mm 3 mps 755 mmHg 80%
    06:00 +27°C° 0 mm 3 mps 755 mmHg 76%
    07:00 +28°C° 0 mm 3 mps 755 mmHg 73%
    08:00 +29°C° 0 mm 3 mps 755 mmHg 69%
    09:00 +32°C° 0 mm 4 mps 755 mmHg 66%
    10:00 +33°C° 0 mm 4 mps 754 mmHg 62%
    11:00 +34°C° 0.3 mm 4 mps 754 mmHg 60%
    12:00 +35°C° 0.3 mm 5 mps 754 mmHg 58%
    13:00 +36°C° 0.3 mm 6 mps 753 mmHg 55%
    14:00 +35°C° 0 mm 6 mps 753 mmHg 55%
    15:00 +34°C° 0 mm 7 mps 753 mmHg 55%
    16:00 +34°C° 0 mm 7 mps 752 mmHg 54%
    17:00 +32°C° 0 mm 6 mps 752 mmHg 56%
    18:00 +29°C° 0 mm 6 mps 752 mmHg 58%
    19:00 +27°C° 0 mm 5 mps 752 mmHg 60%
    20:00 +26°C° 0 mm 5 mps 753 mmHg 55%
    21:00 +25°C° 0 mm 5 mps 753 mmHg 51%
    22:00 +25°C° 0 mm 5 mps 754 mmHg 47%
    23:00 +22°C° 0 mm 4 mps 754 mmHg 50%

    Tomorrow, 28 June, Friday

    Time Temperature Precipitation Wind Pressure Humidity
    00:00 +21°C° 0 mm 3 mps 755 mmHg 52%
    01:00 +19°C° 0 mm 2 mps 755 mmHg 55%
    02:00 +19°C° 0 mm 2 mps 755 mmHg 57%
    03:00 +18°C° 0 mm 2 mps 755 mmHg 60%
    04:00 +17°C° 0 mm 2 mps 755 mmHg 62%
    05:00 +18°C° 0 mm 3 mps 755 mmHg 62%
    06:00 +19°C° 0 mm 3 mps 755 mmHg 62%
    07:00 +21°C° 0 mm 4 mps 756 mmHg 62%
    08:00 +22°C° 0 mm 3 mps 756 mmHg 58%
    09:00 +24°C° 0 mm 3 mps 756 mmHg 54%
    10:00 +25°C° 0 mm 3 mps 756 mmHg 50%
    11:00 +26°C° 0 mm 3 mps 756 mmHg 49%
    12:00 +26°C° 0 mm 3 mps 756 mmHg 47%
    13:00 +27°C° 0 mm 3 mps 756 mmHg 46%
    14:00 +27°C° 0 mm 2 mps 755 mmHg 48%
    15:00 +27°C° 0 mm 2 mps 755 mmHg 49%
    16:00 +26°C° 0 mm 2 mps 755 mmHg 51%
    17:00 +26°C° 0 mm 2 mps 755 mmHg 55%
    18:00 +25°C° 0 mm 2 mps 755 mmHg 60%
    19:00 +24°C° 0 mm 1 mps 756 mmHg 65%
    20:00 +23°C° 0 mm 2 mps 756 mmHg 66%
    21:00 +21°C° 0 mm 2 mps 756 mmHg 68%
    22:00 +20°C° 0 mm 2 mps 756 mmHg 70%
    23:00 +19°C° 0 mm 2 mps 756 mmHg 72%

    Day after tomorrow, 29 June, Saturday

    Time Temperature Precipitation Wind Pressure Humidity
    00:00 +18°C° 0 mm 2 mps 756 mmHg 75%
    01:00 +18°C° 0 mm 1 mps 756 mmHg 77%
    02:00 +17°C° 0 mm 2 mps 756 mmHg 78%
    03:00 +17°C° 0 mm 2 mps 756 mmHg 79%
    04:00 +16°C° 0 mm 2 mps 757 mmHg 80%
    05:00 +19°C° 0 mm 1 mps 757 mmHg 78%
    06:00 +20°C° 0 mm 1 mps 757 mmHg 75%
    07:00 +21°C° 0 mm 1 mps 757 mmHg 72%
    08:00 +23°C° 0 mm 1 mps 757 mmHg 67%
    09:00 +24°C° 0 mm 1 mps 757 mmHg 61%
    10:00 +26°C° 0 mm 2 mps 757 mmHg 55%
    11:00 +26°C° 0 mm 2 mps 757 mmHg 53%
    12:00 +27°C° 0 mm 2 mps 757 mmHg 50%
    13:00 +28°C° 0 mm 2 mps 757 mmHg 47%
    14:00 +28°C° 0 mm 2 mps 756 mmHg 48%
    15:00 +27°C° 0 mm 2 mps 756 mmHg 49%
    16:00 +27°C° 0 mm 2 mps 756 mmHg 50%
    17:00 +26°C° 0 mm 2 mps 756 mmHg 54%
    18:00 +25°C° 0 mm 2 mps 756 mmHg 59%
    19:00 +24°C° 0 mm 2 mps 756 mmHg 63%
    20:00 +23°C° 0 mm 2 mps 756 mmHg 65%
    21:00 +21°C° 0 mm 2 mps 756 mmHg 67%
    22:00 +20°C° 0 mm 2 mps 757 mmHg 68%
    23:00 +19°C° 0 mm 2 mps 757 mmHg 69%

    30 June, Sunday

    Time Temperature Precipitation Wind Pressure Humidity
    00:00 +20°C° 0 mm 1 mps 757 mmHg 69%
    01:00 +19°C° 0 mm 1 mps 757 mmHg 70%
    02:00 +19°C° 0 mm 1 mps 757 mmHg 70%
    03:00 +18°C° 0 mm 1 mps 756 mmHg 71%
    04:00 +18°C° 0 mm 1 mps 756 mmHg 71%
    05:00 +20°C° 0 mm 1 mps 757 mmHg 70%
    06:00 +21°C° 0 mm 1 mps 757 mmHg 68%
    07:00 +22°C° 0 mm 1 mps 757 mmHg 66%
    08:00 +24°C° 0 mm 2 mps 757 mmHg 62%
    09:00 +26°C° 0 mm 2 mps 757 mmHg 59%
    10:00 +27°C° 0 mm 2 mps 757 mmHg 55%
    11:00 +28°C° 0 mm 2 mps 757 mmHg 52%
    12:00 +29°C° 0 mm 2 mps 757 mmHg 49%
    13:00 +30°C° 0 mm 3 mps 756 mmHg 47%
    14:00 +30°C° 0 mm 3 mps 756 mmHg 47%
    15:00 +30°C° 0 mm 3 mps 756 mmHg 48%
    16:00 +30°C° 0 mm 3 mps 756 mmHg 48%
    17:00 +29°C° 0 mm 3 mps 756 mmHg 55%
    18:00 +27°C° 0 mm 2 mps 756 mmHg 61%
    19:00 +26°C° 0 mm 2 mps 756 mmHg 67%
    20:00 +25°C° 0 mm 2 mps 756 mmHg 70%
    21:00 +24°C° 0 mm 2 mps 756 mmHg 72%
    22:00 +23°C° 0 mm 2 mps 756 mmHg 75%
    23:00 +21°C° 0 mm 2 mps 756 mmHg 77%

    1 July, Monday

    Time Temperature Precipitation Wind Pressure Humidity
    00:00 +21°C° 0 mm 2 mps 756 mmHg 79%
    01:00 +20°C° 0 mm 2 mps 756 mmHg 81%
    02:00 +20°C° 0 mm 2 mps 756 mmHg 81%
    03:00 +20°C° 0 mm 1 mps 756 mmHg 82%
    04:00 +20°C° 0 mm 1 mps 755 mmHg 82%
    05:00 +20°C° 0 mm 2 mps 755 mmHg 77%
    06:00 +21°C° 0 mm 2 mps 756 mmHg 71%
    07:00 +24°C° 0 mm 2 mps 756 mmHg 66%
    08:00 +26°C° 0 mm 3 mps 756 mmHg 61%
    09:00 +27°C° 0 mm 3 mps 756 mmHg 56%
    10:00 +29°C° 0 mm 4 mps 756 mmHg 51%
    11:00 +30°C° 0 mm 4 mps 755 mmHg 50%
    12:00 +32°C° 0 mm 4 mps 755 mmHg 48%
    13:00 +33°C° 0 mm 4 mps 754 mmHg 47%
    14:00 +33°C° 0 mm 4 mps 754 mmHg 49%
    15:00 +33°C° 0 mm 4 mps 754 mmHg 50%
    16:00 +33°C° 0 mm 4 mps 753 mmHg 51%
    17:00 +30°C° 0 mm 3 mps 753 mmHg 57%
    18:00 +29°C° 0 mm 3 mps 753 mmHg 63%
    19:00 +28°C° 0 mm 2 mps 752 mmHg 69%
    20:00 +26°C° 0 mm 2 mps 752 mmHg 72%
    21:00 +25°C° 0 mm 2 mps 752 mmHg 74%
    22:00 +24°C° 0 mm 2 mps 752 mmHg 77%
    23:00 +24°C° 0 mm 2 mps 752 mmHg 78%

    2 July, Tuesday

    Time Temperature Precipitation Wind Pressure Humidity
    00:00 +23°C° 0 mm 2 mps 752 mmHg 79%
    01:00 +23°C° 0 mm 1 mps 752 mmHg 80%
    02:00 +22°C° 0.3 mm 1 mps 752 mmHg 80%
    03:00 +22°C° 0.3 mm 1 mps 752 mmHg 81%
    04:00 +21°C° 0.3 mm 2 mps 752 mmHg 82%
    05:00 +23°C° 0 mm 2 mps 752 mmHg 79%
    06:00 +25°C° 0 mm 2 mps 752 mmHg 75%
    07:00 +26°C° 0 mm 2 mps 752 mmHg 72%
    08:00 +28°C° 0 mm 3 mps 752 mmHg 69%
    09:00 +30°C° 0 mm 4 mps 753 mmHg 65%
    10:00 +32°C° 0 mm 5 mps 753 mmHg 62%
    11:00 +33°C° 0 mm 5 mps 753 mmHg 57%
    12:00 +33°C° 0 mm 6 mps 753 mmHg 53%
    13:00 +34°C° 0 mm 6 mps 753 mmHg 48%
    14:00 +33°C° 0 mm 6 mps 753 mmHg 48%
    15:00 +33°C° 0 mm 6 mps 753 mmHg 48%
    16:00 +32°C° 0 mm 6 mps 752 mmHg 48%
    17:00 +29°C° 0 mm 5 mps 753 mmHg 53%
    18:00 +28°C° 0 mm 5 mps 753 mmHg 57%
    19:00 +26°C° 0 mm 4 mps 753 mmHg 62%
    20:00 +25°C° 0 mm 4 mps 754 mmHg 62%
    21:00 +23°C° 0 mm 4 mps 754 mmHg 61%
    22:00 +23°C° 0 mm 4 mps 754 mmHg 61%
    23:00 +22°C° 0 mm 3 mps 755 mmHg 65%
    Show more